[[{"header":{"parameterUnit":"m.s-1","parameterCategory":1,"la1":30.2991,"la2":30.254,"lo1":-89.0895,"lo2":-89.0444,"dy":0.0017,"dx":0.0017,"nx":28,"ny":28,"refTime":"2025-08-23T21:00:00:Z","depth":0,"parameterNumber":2,"parameterNumberName":"U-component_of_WINDS"},"data":[0,0,0,0,0,0,0,0,0,0,0,0,0,0,0,0,0,0,0,0,0,0,0,0,0,0,0,0,0,0,0,0,0,0,0,0,0,0,0,0,0,0,0,0,0,0,0,0,0,0,0,0,0,0,0,0,0,0,-3.5234,-3.5234,0,-3.52,-3.5199,-3.5199,-3.5125,-3.5123,-3.5122,-3.512,-3.5087,-3.5088,-3.5088,0,0,0,0,0,0,0,0,0,0,0,0,0,-3.5238,-3.5238,-3.5234,-3.5234,-3.5233,-3.52,-3.5199,-3.5199,-3.5125,-3.5123,-3.5122,-3.512,-3.5087,-3.5088,-3.5089,0,0,0,0,0,0,0,0,0,0,0,0,0,-3.5223,-3.5238,-3.5234,-3.5192,-3.5188,-3.52,-3.5199,-3.5199,-3.5126,-3.5123,-3.5121,-3.5119,-3.5087,-3.5088,-3.5089,-3.5139,0,0,-3.5091,-3.5091,0,0,0,0,0,0,0,0,-3.5224,-3.5223,-3.5199,-3.5195,-3.5191,-3.5164,-3.5188,-3.5179,-3.5126,-3.515,-3.512,-3.5118,-3.5115,-3.5113,-3.5112,-3.5137,-3.5136,-3.5091,-3.5092,-3.5092,-3.5092,0,0,0,0,0,0,0,-3.5225,-3.5224,-3.5221,-3.5199,-3.5194,-3.5176,-3.5171,-3.5186,-3.5145,-3.5147,-3.5142,-3.5139,-3.5112,-3.5111,-3.5111,-3.5135,-3.5091,-3.5092,-3.5092,-3.5093,-3.52,-3.5202,0,0,0,0,0,0,-3.5232,-3.5225,-3.5222,-3.522,-3.5202,-3.5178,-3.5173,-3.5175,-3.5145,-3.5138,-3.5141,-3.5135,-3.5111,-3.511,-3.5109,-3.5166,-3.5092,-3.5093,-3.5093,-3.5198,-3.5201,-3.5203,0,0,0,0,0,0,-3.5232,-3.5232,-3.5223,-3.5221,-3.5218,-3.518,-3.5184,-3.5176,-3.5174,-3.514,-3.5133,-3.5147,-3.5109,-3.5108,-3.5132,-3.5164,-3.5093,-3.5094,-3.5195,-3.5199,-3.5202,-3.528,0,0,0,0,0,0,-3.5233,-3.5233,-3.5251,-3.5222,-3.5219,-3.5246,-3.5185,-3.5177,-3.5176,-3.5169,-3.5144,-3.5138,-3.5107,-3.5131,-3.5133,-3.5163,-3.5094,-3.5192,-3.5197,-3.5201,-3.5274,-3.5285,-3.5295,0,0,0,0,0,-3.5233,-3.5275,-3.5252,-3.5252,-3.5241,-3.5248,-3.5246,-3.521,-3.5179,-3.5197,-3.5175,-3.5139,-3.516,-3.5134,-3.5135,-3.5167,-3.519,-3.5195,-3.52,-3.5269,-3.5283,-3.5295,0,0,0,0,0,0,-3.5309,-3.527,-3.5245,-3.5278,-3.5267,-3.5235,-3.5257,-3.5226,-3.5223,-3.5217,-3.5172,-3.5168,-3.5197,-3.5184,-3.5156,-3.5214,-3.5169,-3.5175,-3.5221,-3.5234,-3.5244,-3.5247,-3.5095,0,0,0,0,0,-3.533,-3.5339,-3.5304,-3.5337,-3.5332,-3.5296,-3.5298,-3.5271,-3.5257,-3.5253,-3.5232,-3.5221,-3.5225,-3.5229,-3.5231,-3.5272,-3.5266,-3.5294,-3.5305,-3.5314,-3.5319,-3.534,-3.5352,-3.5221,-3.5221,-3.5221,0,0,-3.5373,-3.5353,-3.5361,-3.5352,-3.534,-3.535,-3.5293,-3.5306,-3.5313,-3.5255,-3.5275,-3.526,-3.5245,-3.5278,-3.5291,-3.5268,-3.5354,-3.532,-3.5328,-3.5328,-3.5347,-3.5359,-3.537,-3.5224,-3.5224,-3.5223,0,0,-3.5456,-3.5442,-3.5467,-3.5456,-3.5439,-3.5414,-3.5421,-3.5394,-3.5381,-3.5401,-3.5357,-3.5366,-3.5374,-3.5365,-3.5361,-3.5441,-3.5408,-3.5443,-3.5498,-3.5519,-3.553,-3.5539,-3.5567,-3.5578,-3.5449,-3.5449,-3.5449,0,-3.5512,-3.5525,-3.5485,-3.5501,-3.5498,-3.5445,-3.5471,-3.5462,-3.5447,-3.5447,-3.5421,-3.5429,-3.5416,-3.5445,-3.5465,-3.5464,-3.547,-3.5446,-3.5531,-3.554,-3.5548,-3.5574,-3.5585,-3.5454,-3.5453,-3.5453,-3.5452,0,-3.5594,-3.5604,-3.5627,-3.5612,-3.5613,-3.5634,-3.5597,-3.5602,-3.5575,-3.5554,-3.5575,-3.5557,-3.5554,-3.5559,-3.5533,-3.5585,-3.5571,-3.5539,-3.5493,-3.5565,-3.5589,-3.5599,-3.546,-3.5458,-3.5457,-3.5456,0,0,-3.5725,-3.5687,-3.5696,-3.5689,-3.5666,-3.5673,-3.5692,-3.5688,-3.5693,-3.5685,-3.5699,-3.5707,-3.5677,-3.5673,-3.5646,-3.5664,-3.5729,-3.563,-3.5629,-3.5649,-3.5785,-3.5809,-3.5822,-3.5707,-3.5709,-3.571,-3.5786,0,-3.5802,-3.5831,-3.5796,-3.5833,-3.5842,-3.5792,-3.5808,-3.5796,-3.5776,-3.5781,-3.576,-3.5766,-3.5726,-3.5724,-3.5739,-3.5718,-3.5756,-3.5712,-3.572,-3.5721,-3.5725,-3.5834,-3.586,-3.5933,-3.5796,-3.5797,-3.5798,0,-3.5897,-3.5892,-3.593,-3.5904,-3.5906,-3.5921,-3.5915,-3.592,-3.5906,-3.589,-3.5886,-3.5853,-3.587,-3.5826,-3.5849,-3.582,-3.5822,-3.5812,-3.5814,-3.5813,-3.5764,-3.5837,-3.5955,-3.5966,-3.5813,-3.5812,-3.5811,0,-3.5988,-3.599,-3.6013,-3.6009,-3.5979,-3.5991,-3.5979,-3.5962,-3.5963,-3.5958,-3.5957,-3.5955,-3.5954,-3.5953,-3.592,-3.5891,-3.5947,-3.59,-3.5935,-3.5936,-3.5949,-3.5949,-3.607,-3.5951,-3.5951,-3.5951,-3.595,0,-3.6078,-3.6103,-3.6054,-3.6068,-3.6095,-3.6054,-3.6082,-3.6065,-3.605,-3.6061,-3.6018,-3.6028,-3.5985,-3.5991,-3.5966,-3.5989,-3.5989,-3.5977,-3.597,-3.5981,-3.5982,-3.5981,-3.5975,-3.5953,-3.5953,-3.5952,-3.5952,0,-3.6184,-3.6152,-3.6173,-3.6143,-3.6137,-3.6158,-3.6132,-3.6145,-3.6122,-3.6136,-3.6137,-3.6102,-3.6107,-3.6075,-3.6074,-3.6057,-3.6093,-3.6077,-3.6098,-3.6093,-3.6129,-3.6126,-3.6254,-3.6268,-3.614,-3.6142,-3.6143,0,-3.6244,-3.6262,-3.6234,-3.6237,-3.6227,-3.6234,-3.6233,-3.6194,-3.6196,-3.6181,-3.6195,-3.6196,-3.6195,-3.6206,-3.6181,-3.6181,-3.6165,-3.6209,-3.6164,-3.6175,-3.6165,-3.6164,-3.6166,-3.6219,-3.622,-3.6222,-3.6223,0,-3.6353,-3.6336,-3.6337,-3.6332,-3.6333,-3.6328,-3.632,-3.6326,-3.6283,-3.6288,-3.6292,-3.6291,-3.629,-3.6293,-3.6287,-3.6275,-3.6243,-3.6237,-3.6245,-3.6256,-3.6267,-3.6261,-3.6123,-3.6234,-3.6233,-3.6232,-3.6232,-3.6231,-3.6437,-3.645,-3.6433,-3.6435,-3.6425,-3.6419,-3.6429,-3.6407,-3.641,-3.6406,-3.6383,-3.6392,-3.6377,-3.6366,-3.6357,-3.6364,-3.6343,-3.6354,-3.6357,-3.6361,-3.6367,-3.6266,-3.6363,-3.6363,-3.6362,-3.6362,-3.6362,0,-3.6543,-3.653,-3.6532,-3.6522,-3.6525,-3.6493,-3.6482,-3.6486,-3.6494,-3.6483,-3.6483,-3.6488,-3.649,-3.6465,-3.6464,-3.6474,-3.6459,-3.6475,-3.6474,-3.6472,-3.6386,-3.6379,-3.6487,-3.6487,-3.6487,-3.6487,-3.6487,-3.6487,-3.6599,-3.662,-3.6602,-3.6618,-3.6603,-3.6611,-3.6608,-3.6602,-3.6593,-3.66,-3.6601,-3.6585,-3.6568,-3.6566,-3.6566,-3.6559,-3.656,-3.6582,-3.6569,-3.649,-3.6478,-3.6466,-3.6459,-3.6582,-3.6583,-3.6654,-3.6655,-3.6655]},{"header":{"parameterUnit":"m.s-1","parameterCategory":1,"la1":30.2991,"la2":30.254,"lo1":-89.0895,"lo2":-89.0444,"dy":0.0017,"dx":0.0017,"nx":28,"ny":28,"refTime":"2025-08-23T21:00:00:Z","depth":0,"parameterNumber":3,"parameterNumberName":"V-component_of_WINDS"},"data":[0,0,0,0,0,0,0,0,0,0,0,0,0,0,0,0,0,0,0,0,0,0,0,0,0,0,0,0,0,0,0,0,0,0,0,0,0,0,0,0,0,0,0,0,0,0,0,0,0,0,0,0,0,0,0,0,0,0,-2.6019,-2.6018,0,-2.5989,-2.5989,-2.5988,-2.594,-2.5939,-2.5938,-2.5938,-2.5907,-2.5907,-2.5907,0,0,0,0,0,0,0,0,0,0,0,0,0,-2.6035,-2.6035,-2.6019,-2.6018,-2.6018,-2.5989,-2.5989,-2.5988,-2.594,-2.5939,-2.5938,-2.5937,-2.5907,-2.5907,-2.5907,0,0,0,0,0,0,0,0,0,0,0,0,0,-2.6019,-2.6035,-2.6019,-2.5991,-2.5988,-2.5989,-2.5988,-2.5988,-2.5941,-2.5939,-2.5938,-2.5937,-2.5907,-2.5907,-2.5907,-2.5934,0,0,-2.5908,-2.5908,0,0,0,0,0,0,0,0,-2.602,-2.6018,-2.5995,-2.5993,-2.599,-2.5967,-2.5983,-2.597,-2.5941,-2.5959,-2.5938,-2.5936,-2.5928,-2.5927,-2.5924,-2.5932,-2.5931,-2.5908,-2.5908,-2.5908,-2.5908,0,0,0,0,0,0,0,-2.6021,-2.6019,-2.6007,-2.5995,-2.5991,-2.598,-2.5976,-2.598,-2.5951,-2.5957,-2.5953,-2.595,-2.5926,-2.5924,-2.5923,-2.5931,-2.5908,-2.5908,-2.5908,-2.5908,-2.5959,-2.596,0,0,0,0,0,0,-2.6026,-2.602,-2.6008,-2.6006,-2.6002,-2.598,-2.5976,-2.5976,-2.5951,-2.5946,-2.5952,-2.5948,-2.5925,-2.5923,-2.5922,-2.595,-2.5908,-2.5908,-2.5908,-2.5957,-2.5959,-2.596,0,0,0,0,0,0,-2.6027,-2.6025,-2.6009,-2.6012,-2.6009,-2.5981,-2.5981,-2.5976,-2.5973,-2.5947,-2.5942,-2.5954,-2.5923,-2.5921,-2.5931,-2.5949,-2.5908,-2.5908,-2.5956,-2.5958,-2.596,-2.6009,0,0,0,0,0,0,-2.6027,-2.6026,-2.6036,-2.6013,-2.6009,-2.6019,-2.5982,-2.5976,-2.5973,-2.5969,-2.5948,-2.5943,-2.5922,-2.5931,-2.5931,-2.5948,-2.5908,-2.5954,-2.5957,-2.5959,-2.6006,-2.6012,-2.6018,0,0,0,0,0,-2.6028,-2.6051,-2.6036,-2.6035,-2.6021,-2.602,-2.6018,-2.5993,-2.5975,-2.5984,-2.5967,-2.5944,-2.5947,-2.5933,-2.5932,-2.5949,-2.5953,-2.5956,-2.5959,-2.6003,-2.6011,-2.6018,0,0,0,0,0,0,-2.6077,-2.6047,-2.6031,-2.6047,-2.6037,-2.6012,-2.6024,-2.6003,-2.5998,-2.5994,-2.5963,-2.5959,-2.5972,-2.5961,-2.5946,-2.5973,-2.5946,-2.5949,-2.598,-2.5987,-2.5994,-2.5996,-2.5908,0,0,0,0,0,-2.609,-2.6092,-2.6066,-2.6082,-2.6078,-2.6052,-2.6051,-2.6032,-2.602,-2.6016,-2.5999,-2.5989,-2.5987,-2.5986,-2.5983,-2.6004,-2.5998,-2.6015,-2.6021,-2.6027,-2.603,-2.6039,-2.6047,-2.597,-2.597,-2.597,0,0,-2.6116,-2.61,-2.6103,-2.6092,-2.6082,-2.6084,-2.6048,-2.6053,-2.6055,-2.6016,-2.6024,-2.6012,-2.5998,-2.6013,-2.6018,-2.6004,-2.605,-2.6031,-2.6035,-2.6035,-2.6043,-2.6051,-2.6057,-2.5972,-2.5972,-2.5972,0,0,-2.6165,-2.6153,-2.6166,-2.6156,-2.6141,-2.6123,-2.6126,-2.6105,-2.6095,-2.6102,-2.6074,-2.6075,-2.6073,-2.6064,-2.6059,-2.6104,-2.6082,-2.6104,-2.6137,-2.6147,-2.6153,-2.6158,-2.6174,-2.618,-2.6107,-2.6107,-2.6107,0,-2.62,-2.6203,-2.6175,-2.6181,-2.6177,-2.6142,-2.6154,-2.6146,-2.6131,-2.6129,-2.6113,-2.6109,-2.6097,-2.6109,-2.612,-2.6117,-2.612,-2.6106,-2.6154,-2.6159,-2.6163,-2.6178,-2.6185,-2.611,-2.611,-2.6109,-2.6109,0,-2.6246,-2.6249,-2.6261,-2.6246,-2.6243,-2.6253,-2.6227,-2.6227,-2.6209,-2.6193,-2.62,-2.6184,-2.6178,-2.6179,-2.6161,-2.6188,-2.618,-2.616,-2.6132,-2.6174,-2.6187,-2.6193,-2.6114,-2.6113,-2.6112,-2.6111,0,0,-2.6326,-2.6296,-2.6301,-2.6294,-2.6274,-2.6275,-2.6283,-2.6276,-2.6277,-2.6267,-2.6273,-2.6271,-2.6252,-2.6246,-2.6227,-2.6236,-2.6272,-2.6214,-2.6213,-2.6226,-2.6301,-2.6317,-2.6324,-2.6258,-2.6258,-2.6259,-2.6302,0,-2.6372,-2.6383,-2.6358,-2.6375,-2.6377,-2.6344,-2.635,-2.6339,-2.6324,-2.6323,-2.6306,-2.6306,-2.628,-2.6277,-2.6284,-2.6267,-2.6287,-2.6263,-2.6262,-2.6263,-2.6268,-2.6331,-2.6348,-2.639,-2.6308,-2.6308,-2.6309,0,-2.6426,-2.6419,-2.6437,-2.6416,-2.6415,-2.6422,-2.6413,-2.6413,-2.6399,-2.6387,-2.6381,-2.6358,-2.6364,-2.6337,-2.6344,-2.6328,-2.6326,-2.6318,-2.6319,-2.6318,-2.6289,-2.6333,-2.6402,-2.6409,-2.6317,-2.6317,-2.6316,0,-2.6483,-2.6478,-2.6488,-2.6483,-2.6458,-2.6463,-2.6453,-2.6438,-2.6435,-2.6427,-2.6425,-2.6418,-2.6415,-2.641,-2.6386,-2.6368,-2.6396,-2.6367,-2.6387,-2.6387,-2.6394,-2.6394,-2.6465,-2.6393,-2.6393,-2.6393,-2.6392,0,-2.6537,-2.6549,-2.6513,-2.6519,-2.6532,-2.6502,-2.6516,-2.6502,-2.6489,-2.6492,-2.6462,-2.6465,-2.6433,-2.6432,-2.6413,-2.6422,-2.6421,-2.6411,-2.6406,-2.6414,-2.6416,-2.6413,-2.641,-2.6394,-2.6394,-2.6394,-2.6393,0,-2.6603,-2.6579,-2.6587,-2.6563,-2.6557,-2.6568,-2.6547,-2.6551,-2.6534,-2.6538,-2.6537,-2.651,-2.6508,-2.6484,-2.6476,-2.6463,-2.648,-2.6469,-2.6485,-2.6481,-2.6502,-2.6501,-2.6574,-2.6582,-2.6505,-2.6506,-2.6506,0,-2.6639,-2.6647,-2.6624,-2.6624,-2.6615,-2.6615,-2.6612,-2.6583,-2.6581,-2.6565,-2.6572,-2.6567,-2.6562,-2.656,-2.654,-2.6534,-2.6523,-2.6549,-2.6522,-2.6529,-2.6523,-2.6523,-2.6524,-2.6555,-2.6556,-2.6557,-2.6558,0,-2.6705,-2.6693,-2.669,-2.6682,-2.6679,-2.6672,-2.6663,-2.6664,-2.6633,-2.6632,-2.6629,-2.6625,-2.6617,-2.6613,-2.6603,-2.6593,-2.657,-2.6566,-2.657,-2.6579,-2.6588,-2.6583,-2.6501,-2.6565,-2.6564,-2.6563,-2.6563,-2.6563,-2.6757,-2.6763,-2.6748,-2.6745,-2.6735,-2.6727,-2.673,-2.6713,-2.671,-2.6702,-2.6685,-2.6685,-2.667,-2.6654,-2.6645,-2.6645,-2.6631,-2.6637,-2.6639,-2.6641,-2.6645,-2.6587,-2.6643,-2.6643,-2.6642,-2.6642,-2.6642,0,-2.6823,-2.6811,-2.6808,-2.6796,-2.6794,-2.6773,-2.6761,-2.6761,-2.6761,-2.6749,-2.6744,-2.6741,-2.6737,-2.6716,-2.6709,-2.6712,-2.6702,-2.6712,-2.6711,-2.6709,-2.6658,-2.6655,-2.672,-2.672,-2.672,-2.672,-2.672,-2.672,-2.6856,-2.6865,-2.6851,-2.6854,-2.6842,-2.6842,-2.6837,-2.683,-2.682,-2.6818,-2.6814,-2.68,-2.6784,-2.6776,-2.6771,-2.6765,-2.6764,-2.6777,-2.6768,-2.672,-2.6713,-2.6706,-2.6703,-2.6777,-2.6777,-2.6819,-2.6819,-2.682]}]]